When you browse on this site, cookies collect data to enhance your experience and personalize the content and advertising you see.
Visit our Privacy Policy to learn more. By continuing to use the site, you agree to this use of cookies and data.
  • In United Kingdom
  • List of Countries
  • For 7 days
  • Water Temperature
  • Satellite Maps
  • Weather Map
  • Weather Widgets
  • user-avatar
    Login

    Hourly Weather San Pablo Huixtepec

    Today, 25 March, Monday

    Time Temperature Precipitation Wind Pressure Humidity
    00:00 +18°C° 0 mm 1 mps 640 mmHg 76%
    01:00 +18°C° 0 mm 1 mps 639 mmHg 78%
    02:00 +16°C° 0 mm 1 mps 639 mmHg 80%
    03:00 +15°C° 0 mm 1 mps 638 mmHg 82%
    04:00 +15°C° 0 mm 1 mps 638 mmHg 83%
    05:00 +15°C° 0 mm 1 mps 638 mmHg 83%
    06:00 +14°C° 0 mm 1 mps 638 mmHg 84%
    07:00 +18°C° 0 mm 1 mps 639 mmHg 71%
    08:00 +20°C° 0 mm 1 mps 640 mmHg 59%
    09:00 +22°C° 0 mm 1 mps 641 mmHg 46%
    10:00 +25°C° 0 mm 1 mps 642 mmHg 37%
    11:00 +27°C° 0 mm 1 mps 642 mmHg 28%
    12:00 +29°C° 0 mm 2 mps 643 mmHg 18%
    13:00 +30°C° 0 mm 2 mps 642 mmHg 17%
    14:00 +30°C° 0 mm 3 mps 642 mmHg 15%
    15:00 +31°C° 0 mm 3 mps 641 mmHg 14%
    16:00 +30°C° 0 mm 4 mps 641 mmHg 17%
    17:00 +28°C° 0 mm 4 mps 640 mmHg 20%
    18:00 +27°C° 0 mm 4 mps 640 mmHg 23%
    19:00 +25°C° 0 mm 3 mps 640 mmHg 31%
    20:00 +21°C° 0 mm 3 mps 640 mmHg 38%
    21:00 +18°C° 0 mm 2 mps 640 mmHg 45%
    22:00 +17°C° 0 mm 2 mps 640 mmHg 50%
    23:00 +16°C° 0 mm 2 mps 640 mmHg 54%

    Tomorrow, 26 March, Tuesday

    Time Temperature Precipitation Wind Pressure Humidity
    00:00 +15°C° 0 mm 1 mps 639 mmHg 59%
    01:00 +15°C° 0 mm 1 mps 639 mmHg 62%
    02:00 +14°C° 0 mm 1 mps 638 mmHg 66%
    03:00 +14°C° 0 mm 1 mps 638 mmHg 69%
    04:00 +13°C° 0 mm 1 mps 638 mmHg 70%
    05:00 +13°C° 0 mm 1 mps 638 mmHg 70%
    06:00 +12°C° 0 mm 1 mps 637 mmHg 71%
    07:00 +15°C° 0 mm 1 mps 639 mmHg 59%
    08:00 +18°C° 0 mm 2 mps 640 mmHg 46%
    09:00 +20°C° 0 mm 2 mps 641 mmHg 34%
    10:00 +23°C° 0 mm 2 mps 642 mmHg 28%
    11:00 +25°C° 0 mm 3 mps 642 mmHg 22%
    12:00 +28°C° 0 mm 3 mps 643 mmHg 16%
    13:00 +28°C° 0 mm 4 mps 642 mmHg 16%
    14:00 +29°C° 0 mm 4 mps 642 mmHg 15%
    15:00 +30°C° 0 mm 5 mps 641 mmHg 14%
    16:00 +28°C° 0 mm 5 mps 641 mmHg 16%
    17:00 +26°C° 0 mm 5 mps 640 mmHg 19%
    18:00 +25°C° 0 mm 5 mps 640 mmHg 21%
    19:00 +22°C° 0 mm 4 mps 640 mmHg 28%
    20:00 +19°C° 0 mm 3 mps 640 mmHg 34%
    21:00 +17°C° 0 mm 2 mps 640 mmHg 41%
    22:00 +16°C° 0 mm 2 mps 640 mmHg 50%
    23:00 +15°C° 0 mm 2 mps 640 mmHg 59%

    Day after tomorrow, 27 March, Wednesday

    Time Temperature Precipitation Wind Pressure Humidity
    00:00 +14°C° 0 mm 2 mps 640 mmHg 69%
    01:00 +14°C° 0 mm 2 mps 640 mmHg 71%
    02:00 +13°C° 0 mm 2 mps 639 mmHg 74%
    03:00 +13°C° 0 mm 2 mps 638 mmHg 77%
    04:00 +12°C° 0 mm 2 mps 638 mmHg 76%
    05:00 +12°C° 0 mm 2 mps 638 mmHg 75%
    06:00 +10°C° 0 mm 2 mps 638 mmHg 73%
    07:00 +14°C° 0 mm 2 mps 639 mmHg 62%
    08:00 +16°C° 0 mm 2 mps 641 mmHg 51%
    09:00 +19°C° 0 mm 2 mps 642 mmHg 40%
    10:00 +21°C° 0 mm 2 mps 642 mmHg 33%
    11:00 +25°C° 0 mm 3 mps 643 mmHg 26%
    12:00 +27°C° 0 mm 3 mps 643 mmHg 19%
    13:00 +28°C° 0 mm 3 mps 643 mmHg 19%
    14:00 +28°C° 0 mm 4 mps 642 mmHg 19%
    15:00 +29°C° 0 mm 4 mps 641 mmHg 19%
    16:00 +28°C° 0 mm 4 mps 641 mmHg 22%
    17:00 +27°C° 0 mm 4 mps 641 mmHg 25%
    18:00 +25°C° 0 mm 4 mps 640 mmHg 28%
    19:00 +22°C° 0 mm 3 mps 640 mmHg 37%
    20:00 +19°C° 0 mm 3 mps 640 mmHg 46%
    21:00 +17°C° 0 mm 2 mps 640 mmHg 55%
    22:00 +16°C° 0 mm 2 mps 640 mmHg 62%
    23:00 +15°C° 0 mm 2 mps 640 mmHg 70%

    28 March, Thursday

    Time Temperature Precipitation Wind Pressure Humidity
    00:00 +14°C° 0 mm 2 mps 640 mmHg 77%
    01:00 +13°C° 0 mm 2 mps 639 mmHg 77%
    02:00 +13°C° 0 mm 2 mps 639 mmHg 77%
    03:00 +13°C° 0 mm 2 mps 638 mmHg 78%
    04:00 +12°C° 0 mm 2 mps 638 mmHg 76%
    05:00 +12°C° 0 mm 2 mps 638 mmHg 74%
    06:00 +11°C° 0 mm 1 mps 638 mmHg 72%
    07:00 +14°C° 0 mm 1 mps 639 mmHg 60%
    08:00 +18°C° 0 mm 1 mps 641 mmHg 47%
    09:00 +21°C° 0 mm 1 mps 642 mmHg 35%
    10:00 +24°C° 0 mm 1 mps 642 mmHg 29%
    11:00 +26°C° 0 mm 1 mps 643 mmHg 23%
    12:00 +28°C° 0 mm 1 mps 643 mmHg 17%
    13:00 +29°C° 0 mm 1 mps 642 mmHg 16%
    14:00 +30°C° 0 mm 2 mps 642 mmHg 14%
    15:00 +31°C° 0 mm 2 mps 641 mmHg 13%
    16:00 +30°C° 0 mm 2 mps 641 mmHg 16%
    17:00 +29°C° 0 mm 2 mps 641 mmHg 19%
    18:00 +28°C° 0 mm 3 mps 641 mmHg 21%
    19:00 +25°C° 0 mm 2 mps 641 mmHg 31%
    20:00 +22°C° 0 mm 1 mps 640 mmHg 40%
    21:00 +20°C° 0 mm 1 mps 640 mmHg 49%
    22:00 +19°C° 0 mm 1 mps 640 mmHg 54%
    23:00 +18°C° 0 mm 1 mps 640 mmHg 59%

    29 March, Friday

    Time Temperature Precipitation Wind Pressure Humidity
    00:00 +18°C° 0 mm 1 mps 639 mmHg 64%
    01:00 +16°C° 0 mm 1 mps 639 mmHg 66%
    02:00 +16°C° 0 mm 1 mps 638 mmHg 67%
    03:00 +15°C° 0 mm 1 mps 638 mmHg 69%
    04:00 +15°C° 0 mm 1 mps 638 mmHg 69%
    05:00 +15°C° 0 mm 1 mps 638 mmHg 70%
    06:00 +14°C° 0 mm 1 mps 638 mmHg 71%
    07:00 +18°C° 0 mm 1 mps 639 mmHg 60%
    08:00 +21°C° 0 mm 1 mps 640 mmHg 49%
    09:00 +22°C° 0 mm 0 mps 641 mmHg 39%
    10:00 +26°C° 0 mm 1 mps 641 mmHg 33%
    11:00 +29°C° 0 mm 1 mps 642 mmHg 26%
    12:00 +31°C° 0 mm 1 mps 642 mmHg 20%
    13:00 +31°C° 0 mm 1 mps 641 mmHg 19%
    14:00 +32°C° 0 mm 1 mps 641 mmHg 18%
    15:00 +34°C° 0 mm 2 mps 640 mmHg 16%
    16:00 +31°C° 0 mm 2 mps 640 mmHg 20%
    17:00 +30°C° 0 mm 3 mps 639 mmHg 23%
    18:00 +29°C° 0 mm 3 mps 639 mmHg 26%
    19:00 +27°C° 0 mm 3 mps 639 mmHg 34%
    20:00 +24°C° 0 mm 2 mps 639 mmHg 43%
    21:00 +22°C° 0 mm 1 mps 639 mmHg 51%
    22:00 +21°C° 0 mm 1 mps 639 mmHg 57%
    23:00 +20°C° 0 mm 1 mps 638 mmHg 62%

    30 March, Saturday

    Time Temperature Precipitation Wind Pressure Humidity
    00:00 +19°C° 0 mm 1 mps 638 mmHg 67%
    01:00 +19°C° 0 mm 1 mps 637 mmHg 70%
    02:00 +19°C° 0 mm 1 mps 637 mmHg 73%
    03:00 +18°C° 0 mm 1 mps 636 mmHg 76%
    04:00 +18°C° 0 mm 1 mps 636 mmHg 78%
    05:00 +18°C° 0 mm 1 mps 636 mmHg 80%
    06:00 +16°C° 0 mm 1 mps 636 mmHg 82%
    07:00 +20°C° 0 mm 1 mps 637 mmHg 71%
    08:00 +22°C° 0 mm 1 mps 638 mmHg 59%
    09:00 +25°C° 0 mm 1 mps 639 mmHg 47%
    10:00 +27°C° 0 mm 1 mps 640 mmHg 40%
    11:00 +29°C° 0 mm 1 mps 640 mmHg 33%
    12:00 +31°C° 0 mm 2 mps 640 mmHg 26%
    13:00 +32°C° 0 mm 2 mps 640 mmHg 25%
    14:00 +33°C° 0 mm 3 mps 639 mmHg 23%
    15:00 +34°C° 0 mm 3 mps 638 mmHg 21%
    16:00 +31°C° 0 mm 3 mps 638 mmHg 24%
    17:00 +30°C° 0 mm 3 mps 638 mmHg 27%
    18:00 +29°C° 0 mm 3 mps 638 mmHg 29%
    19:00 +26°C° 0 mm 3 mps 638 mmHg 36%
    20:00 +24°C° 0 mm 2 mps 638 mmHg 42%
    21:00 +22°C° 0 mm 1 mps 638 mmHg 48%
    22:00 +21°C° 0 mm 1 mps 637 mmHg 51%
    23:00 +20°C° 0 mm 1 mps 637 mmHg 53%
    Show more